Other Public Products
Issued by NWS Grand Forks, ND

Home | Current Version | Previous Version | Graphics & Text | Print | Product List | Glossary On
Versions: 1 2 3 4 5 6 7 8 9 10 11 12 13 14 15 16 17 18 19 20 21 22 23 24 25 26 27 28 29 30 31 32 33 34 35 36 37 38 39 40 41 42 43 44 45 46 47 48 49 50
000
FPUS83 KFGF 180331
OPUFGF
PRAIRIE TO PINES WEATHER ROUNDUP
NATIONAL WEATHER SERVICE EASTERN NORTH DAKOTA/GRAND FORKS ND
900 PM CST SAT FEB 17 2018

 **SATELLITE DATA USED TO AUGMENT SKY COVER AT AUTOMATED STATIONS**
 *****  WEATHER ACROSS EASTERN NORTH DAKOTA  *****

CITY           SKY/WX    TMP DP  RH WIND       PRES   REMARKS
GRAND FORKS    FAIR      12   8  84 CALM      29.98R
GRND FORKS AFB FAIR      11   7  83 N6        29.97S WCI   1
GRND FORKS NWS   N/A     14  10  84 N6        29.94F WCI   5
BUXTON           N/A     10   8  91 W10         N/A  WCI  -4
DEVILS LAKE    FAIR       6   2  83 W5        29.93F WCI  -3
FARGO          FAIR      11   5  77 S8        29.98S WCI  -1
WAHPETON ARPT  FAIR      12   3  67 CALM      30.01F
$$

 *****  WEATHER ACROSS CENTRAL AND WESTERN NORTH DAKOTA  *****

CITY           SKY/WX    TMP DP  RH WIND       PRES   REMARKS
JAMESTOWN      FAIR      12   6  77 W5        29.93F WCI   4
BISMARCK       CLOUDY    15   9  76 CALM      29.91F
MINOT          FAIR      12   3  67 CALM      29.89F
MINOT AFB      FAIR       8   2  77 W6        29.88F WCI  -2
GARRISON         N/A     10   4  76 NE3       29.87F
WILLISTON      CLOUDY    13   5  70 NE6       29.84F WCI   4
DICKINSON      CLOUDY    13   8  81 E5        29.75F WCI   5
HETTINGER      CLOUDY    14   8  77 SE8       29.81F WCI   3
$$

 *****  OTHER OBSERVATIONS NORTHEAST NORTH DAKOTA  *****

CITY           SKY/WX    TMP DP  RH WIND       PRES   REMARKS
WALHALLA       FAIR      10   0  61 W3        29.96R
LANGDON        CLOUDY    10   3  72 SW6       29.90S WCI   1
CAVALIER         N/A      7   1  78 SW3       29.97R
GRAFTON        MOCLDY    14   5  67 N5        29.99S WCI   6
CANDO          FAIR       0  -2  92 W7        29.93F WCI -13
FORT TOTTEN      N/A      6   1  80 CALM      29.95S
ROLLA          FAIR       3  -2  78 NW7       29.88S WCI  -9
RUGBY          FAIR       1  -2  85 NW5       29.91F WCI  -8
 ***** THE ABOVE OBSERVATIONS ARE NON NWS ARE NOT QUALITY
        CONTROLLED AND MAY MIS-REPORT RAIN FOR SNOW...
$$

 *****  OTHER OBSERVATIONS SOUTHEAST NORTH DAKOTA *****

CITY           SKY/WX    TMP DP  RH WIND       PRES   REMARKS
COOPERSTOWN    FAIR       9   5  85 W8        29.94S WCI  -4
VALLEY CITY    FAIR      12   9  85 W7        29.96F WCI   2
OAKES            N/A     10   5  79 SW6       29.97F WCI   1
GWINNER          N/A      9   1  72 CALM      29.98S
BUFFALO          N/A     14   6  70 N5          N/A  WCI   6
WYNDMERE       NOT AVBL
 ***** THE ABOVE OBSERVATIONS ARE NON NWS ARE NOT QUALITY
       CONTROLLED AND MAY MIS-REPORT RAIN FOR SNOW...
$$

  *****  WEATHER ACROSS NORTHERN MINNESOTA  *****

CITY           SKY/WX    TMP DP  RH WIND       PRES   REMARKS
FLAG ISLAND    FAIR       3  -9  55 SW3       29.93S
WARROAD        FAIR       3  -4  72 CALM      29.94S
ROSEAU         NOT AVBL
HALLOCK        MOCLDY     9   1  72 W5        29.97R WCI   0
THF RVR FALLS  FLURRIES  13   5  70 NW9       29.95F WCI   1
HALSTAD        NOT AVBL
FOSSTON        MOCLDY     9   3  78 SW3       29.94S
BAUDETTE       MOCLDY     8  -3  61 NW9       29.93R WCI  -5
WASKISH        CLOUDY    12   9  85 W8        29.93R WCI   1
CROOKSTON      FAIR      12   7  79 N3        29.98S
$$
  *****  WEATHER ACROSS CENTRAL AND WEST MINNESOTA  *****

CITY           SKY/WX    TMP DP  RH WIND       PRES   REMARKS
BEMIDJI        CLOUDY    11   3  71 SW3       29.93S
PARK RAPIDS    FAIR       8   0  69 CALM      29.95S
WADENA         FAIR       7   1  78 SW3       29.98R
DETROIT LAKES  FAIR      12   5  73 S5        29.97S WCI   4
MOORHEAD       FAIR      14   7  73 S6        30.00R WCI   5
FERGUS FALLS   FAIR      10   5  79 CALM      30.01S
ELBOW LAKE     FAIR      11   5  76 CALM      30.01S
MORRIS MN      FAIR      12   1  62 CALM      30.01S
STAPLES        FAIR       7   0  72 W5        29.98S WCI  -2
WHEATON        FAIR       9   0  66 S3        30.04S
$$
  *****  WEATHER ELSEWHERE ACROSS MINNESOTA  *****

CITY           SKY/WX    TMP DP  RH WIND       PRES   REMARKS
DULUTH         FAIR      17   4  56 NW13      29.92R WCI   4
INTRNTL FALLS  CLOUDY    13   4  67 NW9       29.91R WCI   1
ELY            FAIR      12   3  67 W8        29.90R WCI   1
CLOQUET        FAIR      16   1  53 W7        29.95R WCI   6
BRAINERD       FAIR      17   2  51 W7        29.99R WCI   8
HIBBING        FAIR      12   1  61 W7        29.93R WCI   1
ALEXANDRIA     FAIR      12   3  67 S5        30.00R WCI   4
SAINT CLOUD    FAIR      17   5  59 NW6       30.03R WCI   9
MINNEAPOLIS    FAIR      24   9  52 NW9       30.05R WCI  14
$$

  *****  WEATHER ACROSS SOUTH DAKOTA  *****

CITY           SKY/WX    TMP DP  RH WIND       PRES   REMARKS
SIOUX FALLS    FAIR      19  15  84 S5        30.05F WCI  12
BROOKINGS      FAIR      20  16  84 S8        30.02F WCI  10
WATERTOWN      MOCLDY    15  11  83 SW6       29.99S WCI   6
HURON          FAIR      22  18  85 S8        30.02F WCI  12
SISSETON         N/A     12   6  77 SW5       30.00F WCI   4
ABERDEEN       CLOUDY    16  10  77 SW5       29.99F WCI   9
MITCHELL       FAIR      20  18  92 SE5       30.04F WCI  13
PIERRE         FAIR      15  12  88 E6        29.92F WCI   6
MOBRIDGE       CLOUDY    17  11  77 CALM      29.89F
RAPID CITY     FAIR      23  20  88 SE8       29.74F WCI  14
$$

  *****  SOME WEATHER IN NEARBY STATES *****

CITY           SKY/WX    TMP DP  RH WIND       PRES   REMARKS
GLASGOW MT     CLOUDY    13   6  74 E13       29.73F WCI  -2
GREAT FALLS MT LGT SNOW  14  11  87 N15       29.46R FOG     WCI  -1
CHEYENNE WY    FAIR      34  11  38 SW3       29.83F
SCOTTSBLUFF NE FAIR      44  17  33 S14       29.78F
OMAHA NE       FAIR      29  23  78 SE5       30.14F WCI  24
DES MOINES IA  FAIR      30  24  78 W3        30.16R
DAVENPORT IA   FAIR      23  19  85 W7        30.16R WCI  15
CHICAGO IL     CLOUDY    30  24  78 W12       30.07R WCI  20
EAU CLAIRE WI  FAIR      23  12  62 W8        30.01R WCI  14
LA CROSSE WI   FAIR      26  21  81 S6        30.06R WCI  19
$$

  *****  SOME NATIONAL WEATHER *****

CITY           SKY/WX    TMP DP  RH WIND       PRES   REMARKS
LA GUARDIA NY  LGT SNOW  33  32  96 E5        30.07F VSB 1
RALEIGH NC     DRZL/FOG  42  42 100 N6        30.11R VSB 1
ATLANTA GA     LGT RAIN  63  62  97 W13       30.13R
NEW ORLEANS LA FAIR      71  65  81 S6        30.15R
OKLAHOMA CITY  MOCLDY    40  26  57 S5        30.20R
ALBUQUERQUE NM MOCLDY    44  29  55 SE8       30.16S
SALT LAKE CITY FAIR      56  15  20 S16G25    29.84F
LOS ANGELES CA FAIR      60  55  83 W10       30.05S
BOISE ID       CLOUDY    45  31  58 SE7       29.68F
SEATTLE WA     CLOUDY    43  38  82 SW24G33   29.57F
$$

*** WEATHER ACROSS MANITOBA...SASKATCHEWAN AND ONTARIO ***
                ***ONTARIO***

CITY           SKY/WX    TMP DP  RH WIND       PRES   REMARKS
GERALDTON      PTCLDY    10   3  72 W6        29.71R WCI   1
THUNDER BAY    CLEAR     18   1  49 W9        29.86R WCI   6
SIOUX LOOKOUT  PTCLDY     1  -9  60 NW14G22   29.84R WCI -17
TORONTO        CLOUDY    28  19  69 SW10      29.95S WCI  19
BIG TROUT LK   PTCLDY   -11 -18  70 W8        29.70R WCI -28
PICKLE LAKE    NOT AVBL
DRYDEN         CLOUDY     3  -6  66 W15G21    29.86R WCI -15
KENORA         PTCLDY     1  -6  71 W5        29.89R WCI  -8
$$
                *** MANITOBA***

CITY           SKY/WX    TMP DP  RH WIND       PRES   REMARKS
BRANDON        CLEAR      0  -8  71 W10       29.90S WCI -17
DAUPHIN        CLEAR      1  -8  66 W9        29.88S WCI -14
ISLAND LAKE    FLURRIES  -8 -13  77 W8        29.79R WCI -23
PILOT MOUND      N/A      9   1  72 W5          N/A  WCI   0
THE PAS        CLEAR     -4 -15  59 NW8       29.84S WCI -19
THOMPSON       NOT AVBL
WINNIPEG       PTCLDY     5  -4  66 SW7       29.93F WCI  -7
LYNN LAKE      CLEAR    -26 -31  75 W6        29.79R WCI -42
CHURCHILL      CRYSTALS -35 -42  67 NW18      29.83S BLWGSNOWWCI -66
GILLAM         CLEAR    -26 -35  62 NW8       29.82R WCI -45
$$
                ***SASKATCHEWAN***

CITY           SKY/WX    TMP DP  RH WIND       PRES   REMARKS
ESTEVAN        MOCLDY     0  -6  78 SW6       29.86R WCI -12
KINDERSLEY     CLOUDY     3  -4  72 NW7       29.83R WCI  -9
LLOYDMINSTER   FLURRIES   7   0  72 NW8       29.83R WCI  -6
PRINCE ALBERT  PTCLDY    -4  -8  84 W2        29.87R
REGINA         MOCLDY     3  -2  78 N7        29.83S WCI  -9
YORKTON        CLOUDY     3  -4  72 SW9       29.84S WCI -11
N. BATTLEFORD  CLOUDY     9  -2  61 W7        29.87R WC



USA.gov is the U.S. government's official web portal to all federal, state and local government web resources and services.